Regional Weather Roundup
Issued by NWS Jackson, KY

Home | Current Version | Previous Version | Graphics & Text | Print | Product List | Glossary On
Versions: 1 2 3 4 5 6 7 8 9 10 11 12 13 14 15 16 17 18 19 20 21 22 23 24 25 26 27
000
ASUS43 KJKL 291610
RWRJKL

EAST KENTUCKY HOURLY WEATHER ROUNDUP
NATIONAL WEATHER SERVICE JACKSON KY
1200 PM EDT FRI JUL 29 2016

NOTE: "FAIR" INDICATES FEW OR NO CLOUDS BELOW 12,000 FEET WITH
NO SIGNIFICANT WEATHER AND/OR OBSTRUCTIONS TO VISIBILITY.

* THESE REPORTS ARE NOT UNDER NWS QUALITY CONTROL AND MAY NOT
  REPORT WEATHER SUCH AS PRECIPITATION AND FOG.

KYZ079-080-083-085-087-088-110-112-115-119-120-291700
...EASTERN KENTUCKY...

CITY           SKY/WX    TMP DP  RH WIND       PRES   REMARKS
JACKSON        CLOUDY    77  71  82 VRB3      30.01S
LONDON         CLOUDY    79  70  74 SW6       30.01S
SOMERSET*      CLOUDY    79  70  73 W8        30.01S
MONTICELLO*    CLOUDY   N/A N/A N/A W15       30.02S
WILLIAMSBURG*  PTSUNNY   79  73  83 SW7       30.02S
MIDDLESBORO*   PTSUNNY   77  72  83 S6        30.02F
HARLAN APT*    CLOUDY    73  68  83 CALM      30.05S
PIKE CO APT*   CLOUDY    75  72  89 SW3       30.02S
BIG SANDY APT* CLOUDY    77  72  86 SW3       30.01S
MOREHEAD APT*  CLOUDY    75  72  88 CALM      30.01S
ASHLAND*       CLOUDY    77  72  83 W5        29.96R
$$

KYZ035-036-041-042-044-050-067-078-099-291700
...CENTRAL KENTUCKY...

CITY           SKY/WX    TMP DP  RH WIND       PRES   REMARKS
MT STERLING*   CLOUDY    77  72  83 W3        30.01S
FLEMING/MASON* CLOUDY    78  72  82 S7        30.00R
DANVILLE*      CLOUDY    79  72  78 CALM      30.00S
LEXINGTON      PTSUNNY   81  71  71 W7        29.98S
FRANKFORT      PTSUNNY   81  70  69 W3        29.96F
LOUISVILLE     PTSUNNY   83  68  60 SW9       29.95S
LEBANON*       CLOUDY    79  73  83 S8        29.98S
GLASGOW*       CLOUDY    73  73 100 SW5       29.99S THUNDER
BOWLING GREEN  LGT RAIN  73  70  90 S7        29.99S
$$

KYZ091>093-OHZ055-061-077-WVZ005-015-034-035-042-291700
...SOUTHERN OHIO/WEST VIRGINIA...

CITY           SKY/WX    TMP DP  RH WIND       PRES   REMARKS
COVINGTON      PTSUNNY   80  72  76 S8        29.97R
COLUMBUS       CLOUDY    76  71  85 S5        29.96R
DAYTON         PTSUNNY   84  69  60 SW7       29.97R
WILMINGTON     PTSUNNY   78  72  81 S7        29.97R
HUNTINGTON     CLOUDY    78  71  79 SW6       29.97F
CHARLESTON     PTSUNNY   78  69  73 S5        29.98F
PINEVILLE*     CLOUDY    79  66  64 MISG      30.08S
BECKLEY        PTSUNNY   75  65  70 W7        30.06S
BLUEFIELD      PTSUNNY   72  65  78 NW9       30.09S
LOGAN CO APT*  CLOUDY    73  70  88 CALM      30.02R
$$

VAZ002-007-008-TNZ017-027-036-066-071-291700
...SOUTHWEST VIRGINIA/EAST TENNESSEE...

CITY           SKY/WX    TMP DP  RH WIND       PRES   REMARKS
WISE*            N/A    N/A N/A N/A SW5       30.09F
JONESVILLE*    CLOUDY    73  70  88 CALM      30.07S
ABINGDON*      CLOUDY    76  69  79 NW3       30.07S
BRISTOL        PTSUNNY   79  67  66 W3        30.04S
MORRISTOWN*    PTSUNNY   81  72  74 VRB7      30.03S
SEVIERVILLE*   MOSUNNY   82  68  61 SW8       30.02S
KNOXVILLE      PTSUNNY   80  71  74 S10       30.01S
OAK RIDGE      PTSUNNY   83  71  67 VRB5      30.02F
CROSSVILLE     CLOUDY    78  69  73 W6        30.07S
NASHVILLE      PTSUNNY   85  73  67 SW8       29.99S HX  91
$$

...KEY TO REMARKS...
VSB - VISIBILITY IN MILES
WCI - WIND CHILL INDEX
HX  - HEAT INDEX

$$




USA.gov is the U.S. government's official web portal to all federal, state and local government web resources and services.